Date String (YYYY-MM-DD hh:mm:ss) UTC,Instrument flags,Ambient pressure (hPa),Sample flow (lpm),Bypass flow (lpm),Sample temperature (°C),Ambient temperature (°C),ASC tube jacket temperature (°C),LED temperature (°C),Box temperature (°C),Sample RH (%),Span deviation,Mass concentration (μg/m³),Mass concentration (μg/m³),Mass concentration (μg/m³)
DateTimeUTC,F1_M11,P_M11,Q1_M11,Q2_M11,T1_M11,T2_M11,T3_M11,T4_M11,T5_M11,U1_M11,ZSPAN_M11,X0_M11,X2_M11,X1_M11
2022-06-17 01:00:00,,0826.7,4.99,0.00,29.1,27.2,00.0,37.8,30.9,21.1,0000.0,0020.64,0007.06,0004.22
2022-06-17 01:01:00,,0826.7,5.01,0.00,29.1,27.3,00.0,37.8,31.0,21.4,0000.0,0021.60,0007.36,0004.25
2022-06-17 01:02:00,,0826.7,4.99,0.00,29.1,27.6,00.0,37.8,31.0,21.5,0000.0,0021.87,0007.50,0004.29
2022-06-17 01:03:00,,0826.7,5.00,0.00,29.1,27.8,00.0,37.8,31.1,22.0,0000.0,0022.24,0007.50,0004.30
2022-06-17 01:04:00,,0826.7,5.00,0.00,29.2,28.0,00.0,37.9,31.2,22.1,0000.0,0022.86,0007.50,0004.32
2022-06-17 01:05:00,,0826.7,5.00,0.00,29.2,28.2,00.0,37.9,31.3,22.0,0000.0,0023.61,0007.58,0004.32
2022-06-17 01:06:00,,0826.6,4.99,0.00,29.3,28.2,00.0,37.9,31.3,21.7,0000.0,0024.00,0007.59,0004.33
2022-06-17 01:07:00,,0826.6,5.01,0.00,29.2,27.5,00.0,37.9,31.1,21.7,0000.0,0025.18,0007.58,0004.34
2022-06-17 01:08:00,,0826.6,5.00,0.00,29.1,27.1,00.0,37.8,30.9,21.9,0000.0,0025.75,0007.55,0004.33
2022-06-17 01:09:00,,0826.5,5.00,0.00,29.1,27.1,00.0,37.8,30.9,22.4,0000.0,0026.15,0007.47,0004.31
2022-06-17 01:10:00,,0826.5,4.99,0.00,29.1,27.2,00.0,37.8,31.0,22.8,0000.0,0025.58,0007.18,0004.26
2022-06-17 01:11:00,,0826.5,5.00,0.00,29.1,27.5,00.0,37.8,31.0,23.0,0000.0,0022.29,0006.68,0004.22
2022-06-17 01:12:00,,0826.6,5.01,0.00,29.1,27.7,00.0,37.9,31.1,23.1,0000.0,0022.03,0006.38,0004.19
2022-06-17 01:13:00,,0826.6,4.99,0.00,29.2,27.9,00.0,37.9,31.2,22.8,0000.1,0022.78,0006.31,0004.17
2022-06-17 01:14:00,,0826.6,5.00,0.00,29.2,28.1,00.0,37.9,31.3,22.3,0000.1,0022.74,0006.44,0004.19
2022-06-17 01:15:00,,0826.7,5.00,0.00,29.3,28.3,00.0,37.9,31.3,21.8,0000.7,0023.76,0006.66,0004.21
2022-06-17 01:16:00,,0826.7,5.00,0.00,29.3,27.9,00.0,37.9,31.2,21.5,0000.8,0024.09,0006.84,0004.23
2022-06-17 01:17:00,,0826.7,5.00,0.00,29.2,27.2,00.0,37.9,31.0,21.4,0000.5,0024.52,0006.95,0004.24
2022-06-17 01:18:00,,0826.7,5.00,0.00,29.1,27.0,00.0,37.8,30.9,21.5,0000.0,0025.07,0007.13,0004.27
2022-06-17 01:19:00,,0826.7,5.01,0.00,29.1,27.1,00.0,37.9,31.0,21.8,0000.3,0028.65,0007.65,0004.32
2022-06-17 01:20:00,,0826.7,4.99,0.00,29.1,27.3,00.0,37.9,31.0,21.9,0000.1,0032.81,0008.16,0004.39
2022-06-17 01:21:00,,0826.7,5.01,0.00,29.1,27.5,00.0,37.9,31.1,21.9,-000.3,0034.34,0008.45,0004.43
2022-06-17 01:22:00,,0826.7,5.00,0.00,29.1,27.7,00.0,37.9,31.1,21.9,-000.2,0034.66,0008.62,0004.46
2022-06-17 01:23:00,,0826.7,5.00,0.00,29.2,28.0,00.0,37.9,31.2,22.0,-000.9,0034.93,0008.71,0004.46
2022-06-17 01:24:00,,0826.7,4.99,0.00,29.2,28.2,00.0,37.9,31.3,22.2,-001.1,0034.53,0008.67,0004.46
2022-06-17 01:25:00,,0826.7,4.99,0.00,29.3,28.3,00.0,37.9,31.3,22.4,0000.0,0034.04,0008.52,0004.43
2022-06-17 01:26:00,,0826.7,5.01,0.00,29.3,27.6,00.0,37.9,31.1,22.6,0000.0,0033.52,0008.41,0004.43
2022-06-17 01:27:00,,0826.7,5.00,0.00,29.2,27.0,00.0,37.9,31.0,22.9,0000.0,0033.45,0008.18,0004.41
2022-06-17 01:28:00,,0826.7,4.99,0.00,29.1,27.0,00.0,37.8,30.9,22.9,0000.0,0032.98,0008.09,0004.41
2022-06-17 01:29:00,,0826.7,5.01,0.00,29.1,27.1,00.0,37.8,31.0,22.9,-000.2,0031.86,0007.98,0004.40
2022-06-17 01:30:00,,0826.6,5.00,0.00,29.1,27.4,00.0,37.9,31.0,22.8,-000.4,0034.21,0008.17,0004.42
2022-06-17 01:31:00,,0826.7,5.00,0.00,29.1,27.6,00.0,37.9,31.1,22.8,0000.7,0036.20,0008.83,0004.48
2022-06-17 01:32:00,,0826.7,5.00,0.00,29.1,27.8,00.0,37.9,31.2,22.7,0001.3,0042.04,0010.14,0004.61
2022-06-17 01:33:00,,0826.7,5.00,0.00,29.2,28.0,00.0,37.9,31.2,22.5,0003.1,0051.76,0011.31,0004.73
2022-06-17 01:34:00,,0826.7,5.00,0.00,29.2,28.2,00.0,37.9,31.3,22.4,0003.6,0055.76,0012.07,0004.81
2022-06-17 01:35:00,,0826.7,5.00,0.00,29.3,28.1,00.0,37.9,31.3,22.4,0004.6,0057.54,0012.62,0004.87
2022-06-17 01:36:00,,0826.7,4.99,0.00,29.2,27.3,00.0,37.9,31.1,22.6,0005.0,0057.84,0012.87,0004.92
2022-06-17 01:37:00,,0826.7,5.00,0.00,29.2,27.0,00.0,37.8,31.0,22.6,0004.8,0057.47,0012.89,0004.93
2022-06-17 01:38:00,,0826.7,5.01,0.00,29.1,27.0,00.0,37.8,31.0,22.7,0004.7,0056.64,0013.00,0004.94
2022-06-17 01:39:00,,0826.7,5.00,0.00,29.1,27.2,00.0,37.8,31.0,22.6,0004.8,0057.29,0013.07,0004.95
2022-06-17 01:40:00,,0826.7,4.99,0.00,29.1,27.4,00.0,37.9,31.0,22.6,0004.0,0056.95,0013.02,0004.95
2022-06-17 01:41:00,,0826.7,4.99,0.00,29.1,27.6,00.0,37.9,31.1,22.7,0000.0,0051.41,0012.46,0004.88
2022-06-17 01:42:00,,0826.7,5.00,0.00,29.1,27.9,00.0,37.9,31.2,22.7,0000.0,0045.34,0011.34,0004.76
2022-06-17 01:43:00,,0826.7,4.99,0.00,29.2,28.1,00.0,37.9,31.3,22.8,0000.0,0037.44,0009.81,0004.59
2022-06-17 01:44:00,,0826.7,5.00,0.00,29.2,28.2,00.0,37.9,31.3,23.0,0000.0,0026.82,0008.51,0004.45
2022-06-17 01:45:00,,0826.7,5.00,0.00,29.2,27.8,00.0,37.9,31.2,23.1,0000.0,0022.40,0007.73,0004.37
2022-06-17 01:46:00,,0826.7,5.01,0.00,29.2,27.1,00.0,37.9,31.0,23.5,0000.0,0019.66,0007.20,0004.31
2022-06-17 01:47:00,,0826.7,5.00,0.00,29.1,26.9,00.0,37.8,30.9,23.9,0000.0,0018.50,0006.90,0004.26
2022-06-17 01:48:00,,0826.7,5.00,0.00,29.1,27.0,00.0,37.8,30.9,24.2,0000.0,0018.01,0006.83,0004.24
2022-06-17 01:49:00,,0826.6,5.01,0.00,29.1,27.2,00.0,37.8,31.0,24.1,0000.0,0018.06,0006.78,0004.22
2022-06-17 01:50:00,,0826.7,5.01,0.00,29.1,27.4,00.0,37.8,31.0,23.8,0000.0,0017.34,0006.72,0004.19
2022-06-17 01:51:00,,0826.6,5.00,0.00,29.1,27.7,00.0,37.9,31.1,23.8,0000.0,0017.68,0006.70,0004.18
2022-06-17 01:52:00,,0826.6,5.00,0.00,29.1,27.9,00.0,37.9,31.2,22.7,0000.0,0019.93,0006.94,0004.20
2022-06-17 01:53:00,,0826.6,5.00,0.00,29.2,28.1,00.0,37.9,31.3,22.6,0000.0,0025.66,0007.83,0004.28
2022-06-17 01:54:00,,0826.6,4.99,0.00,29.2,28.3,00.0,37.9,31.3,22.6,0000.0,0036.34,0009.56,0004.45
2022-06-17 01:55:00,,0826.7,5.00,0.00,29.3,28.3,00.0,37.9,31.3,22.9,0000.7,0053.44,0012.05,0004.69
2022-06-17 01:56:00,,0826.5,5.00,0.00,29.2,27.6,00.0,37.9,31.2,23.0,0002.2,0069.07,0014.54,0004.97
2022-06-17 01:57:00,,0826.5,5.01,0.00,29.2,27.0,00.0,37.9,31.0,23.4,0003.4,0086.71,0017.70,0005.28
2022-06-17 01:58:00,,0826.5,4.99,0.00,29.1,27.0,00.0,37.8,30.9,23.5,0004.1,0105.92,0020.91,0005.64
2022-06-17 01:59:00,,0826.5,5.00,0.00,29.1,27.2,00.0,37.8,31.0,23.3,0004.3,0123.21,0023.63,0005.95
